Weather History for Ely, MN

Change the Weather History Date:

Monday, May 27, 2013

  Actual Average Record
Temperature  
Mean Temperature 52 °F -  
Max Temperature 68 °F 63 °F 82 °F (2006)
Min Temperature 35 °F 38 °F 26 °F (2011)
Degree Days  
Heating Degree Days 14    
Growing Degree Days 2 (Base 50)    
Moisture  
Dew Point 34 °F    
Average Humidity 47    
Maximum Humidity 93    
Minimum Humidity 30    
Precipitation  
Precipitation 0.00 in - - ()
Sea Level Pressure  
Sea Level Pressure 30.02 in    
Wind  
Wind Speed 5 mph (SE)    
Max Wind Speed 20 mph    
Max Gust Speed 25 mph    
Visibility 10 miles    
Events      
Averages and records for this station are not official NWS values.
T = Trace of Precipitation, MM = Missing Value Source: NWS Daily Summary

Daily Weather History Graph

Daily Weather History Graph

Search for Another Location

Airport:

Trip Planner

Search our weather history database for the weather conditions in past years. The results will help you decide how hot, cold, wet, or windy it might be!

Date:

Astronomy

May. 27, 2013 Rise Set
Actual Time 5:16 AM CDT 8:53 PM CDT
Civil Twilight 4:37 AM CDT 9:32 PM CDT
Nautical Twilight 3:45 AM CDT 10:24 PM CDT
Astronomical Twilight 2:33 AM CDT 11:37 PM CDT
Moon 11:27 PM CDT (5/27) 7:57 AM CDT (5/27)
Length of Visible Light 16h 55m
Length of Day
15h 37m
Waning Gibbous, 91% of the Moon is Illuminated
May 27
Waning Gibbous
May 31
Last Quarter
Jun 8
New
Jun 16
First Quarter
Jun 23
Full

Hourly Weather History & Observations

Time (CDT) Temp. Windchill Dew Point Humidity Pressure Visibility Wind Dir Wind Speed Gust Speed Precip Events Conditions
12:12 AM 42.8 °F - 30.2 °F 61% 30.15 in 10.0 mi Calm Calm - N/A   Clear
12:33 AM 39.2 °F - 33.8 °F 81% 30.13 in 10.0 mi Calm Calm - N/A   Clear
12:53 AM 39.2 °F - 32.0 °F 75% 30.11 in 10.0 mi Calm Calm - N/A   Clear
1:12 AM 39.2 °F - 32.0 °F 75% 30.10 in 10.0 mi Calm Calm - N/A   Clear
1:33 AM 39.2 °F - 30.2 °F 70% 30.10 in 10.0 mi Calm Calm - N/A   Clear
1:53 AM 44.6 °F 40.7 °F 26.6 °F 49% 30.10 in 10.0 mi ESE 6.9 mph - N/A   Clear
2:12 AM 46.4 °F 42.9 °F 28.4 °F 50% 30.10 in 10.0 mi SE 6.9 mph - N/A   Clear
2:33 AM 46.4 °F 44.3 °F 26.6 °F 46% 30.11 in 10.0 mi SE 4.6 mph - N/A   Clear
2:53 AM 44.6 °F 43.1 °F 26.6 °F 49% 30.09 in 10.0 mi ESE 3.5 mph - N/A   Clear
3:12 AM 44.6 °F 42.2 °F 28.4 °F 53% 30.10 in 10.0 mi SE 4.6 mph - N/A   Clear
3:33 AM 44.6 °F 43.1 °F 28.4 °F 53% 30.10 in 10.0 mi ESE 3.5 mph - N/A   Clear
3:53 AM 42.8 °F - 28.4 °F 57% 30.10 in 10.0 mi Calm Calm - N/A   Clear
4:12 AM 39.2 °F - 33.8 °F 81% 30.12 in 10.0 mi Calm Calm - N/A   Clear
4:33 AM 37.4 °F - 30.2 °F 75% 30.10 in 10.0 mi Calm Calm - N/A   Clear
4:53 AM 37.4 °F - 32.0 °F 81% 30.10 in 10.0 mi Calm Calm - N/A   Clear
5:13 AM 37.4 °F - 32.0 °F 81% 30.09 in 10.0 mi Calm Calm - N/A   Clear
5:32 AM 35.6 °F - 33.8 °F 93% 30.09 in 10.0 mi Calm Calm - N/A   Clear
5:53 AM 37.4 °F - 32.0 °F 81% 30.11 in 10.0 mi Calm Calm - N/A   Clear
6:13 AM 37.4 °F - 30.2 °F 75% 30.12 in 10.0 mi Calm Calm - N/A   Clear
6:32 AM 41.0 °F - 33.8 °F 76% 30.12 in 10.0 mi Calm Calm - N/A   Clear
6:53 AM 44.6 °F - 32.0 °F 61% 30.13 in 10.0 mi Calm Calm - N/A   Clear
7:13 AM 48.2 °F - 32.0 °F 54% 30.12 in 10.0 mi ESE 3.5 mph - N/A   Clear
7:32 AM 50.0 °F - 33.8 °F 54% 30.11 in 10.0 mi ESE 3.5 mph - N/A   Clear
7:53 AM 51.8 °F - 33.8 °F 50% 30.11 in 10.0 mi ESE 6.9 mph - N/A   Clear
8:13 AM 55.4 °F - 35.6 °F 47% 30.11 in 10.0 mi ESE 8.1 mph - N/A   Clear
8:32 AM 55.4 °F - 35.6 °F 47% 30.10 in 10.0 mi SE 9.2 mph - N/A   Clear
8:53 AM 55.4 °F - 35.6 °F 47% 30.09 in 10.0 mi ESE 8.1 mph - N/A   Clear
9:13 AM 57.2 °F - 37.4 °F 48% 30.08 in 10.0 mi SE 6.9 mph - N/A   Clear
9:32 AM 59.0 °F - 37.4 °F 45% 30.07 in 10.0 mi ESE 9.2 mph - N/A   Clear
9:53 AM 60.8 °F - 39.2 °F 45% 30.07 in 10.0 mi ESE 9.2 mph - N/A   Clear
10:13 AM 60.8 °F - 39.2 °F 45% 30.06 in 10.0 mi SE 10.4 mph - N/A   Clear
10:32 AM 62.6 °F - 39.2 °F 42% 30.05 in 10.0 mi SSE 15.0 mph - N/A   Clear
10:53 AM 62.6 °F - 39.2 °F 42% 30.06 in 10.0 mi SSE 11.5 mph - N/A   Clear
11:13 AM 62.6 °F - 37.4 °F 39% 30.05 in 10.0 mi South 12.7 mph 21.9 mph N/A   Clear
11:32 AM 62.6 °F - 35.6 °F 37% 30.04 in 10.0 mi SSE 12.7 mph 21.9 mph N/A   Clear
11:53 AM 64.4 °F - 35.6 °F 34% 30.02 in 10.0 mi SSE 13.8 mph 24.2 mph N/A   Clear
12:12 PM 64.4 °F - 35.6 °F 34% 30.01 in 10.0 mi SE 12.7 mph 18.4 mph N/A   Clear
12:33 PM 66.2 °F - 33.8 °F 30% 30.00 in 10.0 mi SE 17.3 mph 21.9 mph N/A   Clear
12:53 PM 66.2 °F - 35.6 °F 32% 29.99 in 10.0 mi SSE 19.6 mph 24.2 mph N/A   Clear
1:12 PM 66.2 °F - 37.4 °F 35% 29.99 in 10.0 mi SSE 16.1 mph 25.3 mph N/A   Clear
1:33 PM 68.0 °F - 37.4 °F 33% 29.99 in 10.0 mi SSE 16.1 mph 20.7 mph N/A   Clear
1:53 PM 68.0 °F - 35.6 °F 30% 29.98 in 10.0 mi ESE 15.0 mph 21.9 mph N/A   Scattered Clouds
2:12 PM 66.2 °F - 37.4 °F 35% 29.97 in 10.0 mi SE 15.0 mph 18.4 mph N/A   Mostly Cloudy
2:33 PM 66.2 °F - 37.4 °F 35% 29.98 in 10.0 mi SE 15.0 mph 19.6 mph N/A   Overcast
2:53 PM 66.2 °F - 37.4 °F 35% 29.99 in 10.0 mi SSE 10.4 mph 16.1 mph N/A   Overcast
3:12 PM 66.2 °F - 37.4 °F 35% 29.98 in 10.0 mi SE 12.7 mph 19.6 mph N/A   Overcast
3:33 PM 66.2 °F - 37.4 °F 35% 29.98 in 10.0 mi SE 15.0 mph 18.4 mph N/A   Overcast
3:53 PM 66.2 °F - 37.4 °F 35% 29.98 in 10.0 mi SSE 13.8 mph - N/A   Overcast
4:12 PM 66.2 °F - 35.6 °F 32% 29.97 in 10.0 mi SE 13.8 mph 19.6 mph N/A   Overcast
4:33 PM 66.2 °F - 35.6 °F 32% 29.96 in 10.0 mi SE 11.5 mph 19.6 mph N/A   Overcast
4:49 PM 66.2 °F - 35.6 °F 32% 29.95 in 10.0 mi SSE 15.0 mph 20.7 mph N/A   Overcast
5:13 PM 68.0 °F - 35.6 °F 30% 29.95 in 10.0 mi ESE 15.0 mph - N/A   Scattered Clouds
5:33 PM 66.2 °F - 35.6 °F 32% 29.94 in 10.0 mi SSE 10.4 mph 21.9 mph N/A   Clear
5:53 PM 66.2 °F - 35.6 °F 32% 29.94 in 10.0 mi SE 16.1 mph 19.6 mph N/A   Clear
6:12 PM 66.2 °F - 33.8 °F 30% 29.93 in 10.0 mi ESE 10.4 mph - N/A   Clear
6:33 PM 66.2 °F - 33.8 °F 30% 29.92 in 10.0 mi SSE 8.1 mph 17.3 mph N/A   Clear
6:53 PM 66.2 °F - 35.6 °F 32% 29.92 in 10.0 mi ESE 9.2 mph - N/A   Clear
7:13 PM 64.4 °F - 33.8 °F 32% 29.91 in 10.0 mi SE 10.4 mph - N/A   Clear
7:33 PM 62.6 °F - 33.8 °F 34% 29.92 in 10.0 mi SE 10.4 mph - N/A   Clear
7:53 PM 62.6 °F - 33.8 °F 34% 29.92 in 10.0 mi SE 9.2 mph - N/A   Clear
8:13 PM 60.8 °F - 35.6 °F 39% 29.92 in 10.0 mi ESE 4.6 mph - N/A   Clear
8:33 PM 59.0 °F - 35.6 °F 42% 29.92 in 10.0 mi ESE 5.8 mph - N/A   Clear
8:53 PM 57.2 °F - 35.6 °F 44% 29.92 in 10.0 mi ESE 5.8 mph - N/A   Clear
9:12 PM 57.2 °F - 33.8 °F 41% 29.92 in 10.0 mi ESE 4.6 mph - N/A   Scattered Clouds
9:33 PM 55.4 °F - 35.6 °F 47% 29.93 in 10.0 mi ESE 3.5 mph - N/A   Mostly Cloudy
9:53 PM 57.2 °F - 33.8 °F 41% 29.93 in 10.0 mi ESE 5.8 mph - N/A   Overcast
10:13 PM 57.2 °F - 32.0 °F 38% 29.93 in 10.0 mi ESE 6.9 mph - N/A   Overcast
10:33 PM 57.2 °F - 32.0 °F 38% 29.92 in 10.0 mi ESE 5.8 mph - N/A   Overcast
10:52 PM 55.4 °F - 32.0 °F 41% 29.92 in 10.0 mi East 3.5 mph - N/A   Overcast
11:13 PM 55.4 °F - 32.0 °F 41% 29.91 in 10.0 mi East 4.6 mph - N/A   Mostly Cloudy
11:33 PM 53.6 °F - 33.8 °F 47% 29.90 in 10.0 mi ESE 6.9 mph - N/A   Scattered Clouds
11:52 PM 53.6 °F - 33.8 °F 47% 29.89 in 10.0 mi East 6.9 mph - N/A   Clear